Location: Bayswater
(40.6103°N, 73.7672°W)
Time: 05:38:29
(UTC+00:00)

Daily predictions for brighter satellites

Satellite Brightness Start Highest point End
(mag) Time Altitude Azimuth Time Altitude Azimuth Time Altitude Azimuth
In-Cosmos 22 Rocket 4.2 00:01:13 10° N 00:06:31 54° ENE 00:06:38 54° E
USA 238 DEB 3.9 00:00:06 10° SW 00:06:45 70° NW 00:13:32 11° NNE
USA 238 3.9 00:00:12 10° SW 00:06:51 70° NW 00:13:36 11° NNE
Cosmos 1939 Rocket 3.9 00:15:50 18° SSW 00:18:31 45° W 00:22:25 10° NNW
Cosmos 2278 Rocket 3.8 00:13:36 10° WSW 00:18:40 33° WNW 00:23:47 10° N
Cosmos 2297 3.6 00:14:26 10° SSW 00:20:07 83° ESE 00:22:08 43° NNE
Cosmos 2016 Rocket 4.0 00:17:22 10° N 00:23:06 57° ENE 00:23:06 57° ENE
SJ 16-02 3.7 00:22:53 10° N 00:23:28 13° N 00:23:28 13° N
BREEZE-M DEB (TANK) 3.4 00:19:07 10° WSW 00:27:42 50° NNW 00:28:05 48° NNW
Cosmos 44 3.5 00:24:44 10° SW 00:29:06 66° SW 00:29:06 66° SW
NOSS 3-2 (A) 4.0 00:25:33 10° SW 00:31:10 54° NW 00:35:23 21° NNE
MOS 1 4.3 00:32:20 54° S 00:33:40 79° WSW 00:39:20 10° NNW
BREEZE-M DEB (TANK) 4.5 00:32:17 10° SW 00:36:51 67° SE 00:54:56 10° ENE
Cosmos 1461 4.3 00:33:14 10° NW 00:36:48 36° WSW 00:36:48 36° WSW
H-2A R/B 3.4 00:47:09 30° N 00:47:09 30° N 00:49:52 10° N
Cosmos 2061 Rocket 4.0 00:43:14 10° N 00:49:04 78° NW 00:49:04 78° NW
NOSS 3-2 (C) 3.9 00:50:05 10° SW 00:55:43 56° NW 00:56:43 50° NNW
ADEOS Rocket 3.5 00:58:34 10° N 01:06:14 78° WNW 01:13:16 10° SSW
Lacrosse 5 3.5 01:03:53 10° NW 01:06:49 32° WNW 01:06:49 32° WNW
H-2A R/B 4.2 00:37:01 10° WSW 01:21:30 56° S 01:22:19 55° S
Cosmos 2082 Rocket 4.2 01:20:07 10° NW 01:24:28 23° W 01:25:23 22° WSW
ATLAS 3B R/B 3.5 01:21:15 10° SW 01:26:18 45° W 01:26:18 45° W
CENTAUR R/B 3.9 01:31:54 10° WSW 01:35:12 31° W 01:35:12 31° W
ATLAS 2AS CENTAUR R/B 3.8 07:34:13 45° E 07:34:13 45° E 07:41:06 10° NE
Cosmos 2333 Rocket 4.3 07:38:43 22° NE 07:38:43 22° NE 07:40:40 10° NE
Cosmos 2219 Rocket 4.0 07:58:07 26° NNE 07:58:07 26° NNE 08:00:26 10° NNE
NOSS 3-2 (A) 4.2 08:03:13 60° N 08:04:29 68° NE 08:12:52 10° SE
Cosmos 2237 Rocket 3.5 08:06:47 35° ESE 08:06:51 35° ESE 08:11:57 10° NE
USA 267 3.6 08:05:13 10° NE 08:10:29 58° NNE 08:10:29 58° NNE
Cosmos 1980 4.3 08:24:20 52° ESE 08:24:20 52° ESE 08:29:45 10° NNE
ADEOS 4.2 08:20:48 10° NNE 08:25:28 52° E 08:25:28 52° E
COSMOS 2428 3.9 08:28:39 33° N 08:28:39 33° N 08:31:46 10° NNE
Cosmos 2360 Rocket 4.4 08:32:13 13° N 08:32:13 13° N 08:33:00 10° N
NOSS 0 Rocket 4.0 08:28:43 70° ESE 08:28:46 70° ESE 08:34:56 10° NNE
NOSS 3-2 (C) 4.3 08:24:41 27° NNW 08:29:15 67° NE 08:37:40 10° SE
Milstar 3 Cent rocket 4.4 08:41:26 14° S 08:41:51 14° S 08:44:44 10° SE
NOSS 3-4 (A) 3.3 08:43:29 73° S 08:44:01 81° ESE 08:50:19 10° NE
NOSS 3-4 (C) 3.3 08:43:31 72° S 08:44:06 80° ESE 08:50:25 10° NE
USA 234 3.6 08:37:44 10° ESE 08:44:07 60° NE 08:47:19 31° NNW
Cosmos 2074 Rocket 4.0 08:52:36 10° S 08:58:50 81° E 09:05:05 10° N
ATLAS 3B R/B 3.0 08:54:30 15° NNW 09:00:07 64° NE 09:06:57 10° SE
SL-16 R/B 3.7 08:55:51 10° S 09:00:57 36° ESE 09:06:04 10° NE
Cosmos 44 3.0 09:05:13 79° ENE 09:05:13 79° ENE 09:09:29 10° SE
Cosmos 292 Rocket 3.7 09:06:56 66° SSW 09:06:56 66° SSW 09:11:11 10° SSE
CENTAUR R/B 3.2 09:02:19 10° NNW 09:10:30 83° NE 09:19:15 10° SE
IDEFIX/ARIANE 42P 2.6 09:07:30 10° N 09:12:35 55° WNW 09:12:35 55° WNW
Cosmos 2278 Rocket 2.0 09:09:56 28° NNW 09:12:59 73° WSW 09:18:37 10° SSE
Cosmos 2181 Rocket 4.2 09:08:42 10° NNW 09:14:41 46° W 09:20:34 10° SSW
Cosmos 1606 Rocket 4.4 09:11:41 10° N 09:15:54 50° E 09:20:06 10° SSE
Cosmos 489 Rocket 4.3 09:10:04 10° NNW 09:16:20 77° WSW 09:22:35 10° SSE
H-2A R/B 2.4 09:15:24 10° N 09:19:36 71° WNW 09:20:07 62° WSW
Cosmos 2333 Rocket 3.5 09:20:45 23° NW 09:20:45 23° NW 09:24:22 10° N
CZ-2C R/B 2.6 09:16:43 10° NNE 09:21:56 77° ESE 09:27:02 10° S
ATLAS 2AS CENTAUR R/B 3.4 09:21:43 35° W 09:24:35 47° NW 09:32:19 10° NNE
Cosmos 676 Rocket 4.0 09:23:23 10° SSW 09:28:40 87° ESE 09:33:57 10° NNE
USA 238 DEB 4.4 09:29:51 32° W 09:30:56 33° WSW 09:37:23 10° S
USA 238 4.4 09:29:53 32° W 09:31:02 34° WSW 09:37:31 10° S
Cosmos 407 Rocket 3.9 09:36:54 35° W 09:38:02 40° WNW 09:42:51 10° N
Okean 1-7 Rocket 3.9 09:33:56 10° S 09:38:19 70° E 09:42:48 10° NNE
Cosmos 1190 Rocket 4.3 09:36:21 31° WSW 09:38:22 46° WNW 09:43:27 10° N
Cosmos 2219 Rocket 3.7 09:39:52 18° NW 09:39:52 18° NW 09:43:07 10° N
Cosmos 1953 2.2 09:37:24 10° NNW 09:41:24 65° W 09:45:21 10° S
CZ-4B R/B 2.6 09:39:10 10° N 09:43:08 80° WNW 09:46:54 10° SSW
COSMO-SKYMED 1 3.9 09:40:09 10° SE 09:44:13 42° ENE 09:48:19 10° N
Meteor 2-10 4.5 09:41:25 10° N 09:46:37 65° ENE 09:51:59 10° SSE
BREEZE-M DEB (TANK) 3.7 09:47:51 18° SSW 09:47:51 18° SSW 09:49:04 10° S
BREEZE-M DEB (TANK) 3.8 09:46:11 21° NW 09:47:11 23° NNW 09:49:28 10° NE
Cosmos 2237 Rocket 2.9 09:48:40 26° W 09:50:52 34° WNW 09:56:02 10° N
Meteor 1-4 Rocket 2.7 09:50:03 32° WSW 09:51:05 42° WNW 09:54:24 10° N
Cosmos 2228 2.8 09:47:24 10° NNW 09:51:40 74° W 09:55:53 10° S
In-Cosmos 22 4.1 09:46:24 10° S 09:51:44 89° W 09:57:13 10° N
Cosmos 1707 3.5 09:53:27 30° W 09:53:55 31° WNW 09:57:26 10° NNW
USA 267 4.3 09:48:37 10° NE 09:54:05 29° NNW 09:57:49 17° WNW
Cosmos 1726 2.5 09:51:19 10° N 09:54:58 65° E 09:58:38 10° SSE
Meteor 1-31 Rocket 2.8 09:51:25 10° N 09:55:07 52° WNW 09:58:48 10° SSW
Cosmos 1726 Rocket 3.4 09:52:01 10° NNW 09:56:19 71° W 10:00:36 10° S
Cosmos 389 Rocket 4.1 10:03:20 17° NW 10:03:20 17° NW 10:04:49 10° NNW
Milstar 3 4.3 09:57:52 10° SW 10:03:24 26° SSE 10:09:06 10° ESE
PSLV R/B 2.9 10:02:29 30° SW 10:03:33 60° SSE 10:06:09 10° E
Cosmos 2154 Rocket 4.1 09:58:17 10° SSW 10:04:17 52° W 10:10:21 10° N
Cosmos 1850 Rocket 4.2 10:01:57 10° S 10:07:05 73° ESE 10:12:15 10° NNE
Cosmos 2369 Rocket 4.1 10:02:47 10° N 10:07:37 29° NE 10:12:25 10° ESE
Cosmos 1484 Rocket 2.6 10:07:28 10° N 10:11:17 81° WNW 10:15:08 10° SSW
Helios 1A Rocket 3.6 10:07:11 10° NNE 10:11:18 60° ESE 10:15:23 10° S
Cosmos 1674 2.6 10:07:46 10° S 10:11:29 89° E 10:15:13 10° N
RESURS DK-1 2.8 10:08:40 11° SW 10:12:22 39° WNW 10:16:17 10° N
Cosmos 1954 Rocket 4.5 10:10:47 10° SW 10:15:39 38° WNW 10:20:32 10° N
Okean O Rocket 2.3 10:11:22 10° NNE 10:15:43 58° E 10:20:01 10° S
Cosmos 1140 Rocket 4.4 10:13:48 11° WSW 10:18:03 27° WNW 10:22:27 10° N
CZ-4B R/B 3.8 10:12:52 10° NNE 10:18:07 59° ESE 10:23:19 10° S
Cosmos 2058 Rocket 3.1 10:14:24 10° NNW 10:18:46 62° W 10:23:09 10° S
Cosmos 1356 4.0 10:18:03 10° NNW 10:21:14 35° W 10:24:23 10° SSW
Nadezhda 3 Rocket 4.4 10:19:04 10° NNW 10:24:58 41° W 10:30:48 10° SSW
Iridium 51 4.1 10:21:36 10° N 10:25:21 82° E 10:28:50 10° S
USA 234 3.8 10:21:11 10° SSE 10:27:15 40° SW 10:33:21 10° WNW
Cosmos 468 Rocket 4.2 10:24:44 10° NNW 10:29:55 78° ENE 10:35:01 10° SSE
ALOS 2.3 10:26:52 10° NNE 10:31:34 88° ESE 10:36:14 10° SSW
Cosmos 2341 Rocket 4.1 10:25:30 10° SSW 10:31:36 55° W 10:37:42 10° N
SKYMED 2 3.7 10:27:57 10° S 10:32:12 56° W 10:36:29 10° NNW
SJ-12 4.0 10:29:50 10° N 10:33:53 59° WNW 10:37:55 10° SSW
Cosmos 1943 Rocket 3.0 10:31:12 10° NNW 10:36:48 56° ENE 10:42:20 10° SE
Cosmos 1626 3.5 10:33:25 10° SSE 10:36:57 45° E 10:40:30 10° NNE
Cosmos 1300 4.2 10:34:32 10° N 10:38:10 41° ENE 10:41:47 10° SSE
FENGYUN 3A 3.7 10:35:39 10° NNE 10:41:07 84° WNW 10:46:33 10° SSW
Meteor 1-24 Rocket 3.8 10:36:34 10° SSW 10:42:17 75° W 10:48:15 10° N
SL-14 R/B 3.7 10:38:28 10° S 10:42:23 69° E 10:46:17 10° NNE
Cosmos 1603 4.0 10:38:54 10° SSW 10:44:29 75° ESE 10:50:09 10° NNE
METEOR-M 4.1 10:39:16 10° N 10:44:35 73° WNW 10:49:54 10° SSW
SL-16 R/B 2.9 10:40:00 10° WSW 10:45:02 33° WNW 10:50:08 10° N
BREEZE-M DEB (TANK) 2.9 10:43:38 10° W 10:48:33 55° NNW 10:51:14 10° ENE
